Regional Weather Roundup
Issued by NWS Charleston, WV

Home | Current Version | Previous Version | Text Only | Print | Product List | Glossary Off
Versions: 1 2 3 4 5 6 7 8 9 10 11 12 13 14 15 16 17 18 19 20 21 22 23 24 25 26 27 28 29 30 31 32 33 34 35 36 37 38 39 40 41 42 43 44 45 46 47 48 49 50

652
ASUS41 KRLX 241810
RWRRLX
West Virginia Regional Weather Roundup
National Weather Service Charleston WV
200 PM EDT MON APR 24 2017

Note: "fair" indicates few or no clouds below 12,000 feet with no
significant weather and/or obstructions to visibility.

WVZ003-241900-
Northern Panhandle of West Virginia

CITY           SKY/WX    TMP DP  RH WIND       PRES   REMARKS
WHEELING       CLOUDY    59  43  55 E14       30.00F
$$

WVZ009-241900-
Northwest West Virginia

CITY           SKY/WX    TMP DP  RH WIND       PRES   REMARKS
PARKERSBURG    CLOUDY    61  48  62 NE10      29.97S
$$

WVZ006-241900-
Western West Virginia

CITY           SKY/WX    TMP DP  RH WIND       PRES   REMARKS
HUNTINGTON     CLOUDY    60  52  74 E8        29.89S
$$

WVZ015-241900-
West Central West Virginia

CITY           SKY/WX    TMP DP  RH WIND       PRES   REMARKS
CHARLESTON     CLOUDY    61  51  70 VRB3      29.90S
$$

WVZ022-031-241900-
North Central West Virginia

CITY           SKY/WX    TMP DP  RH WIND       PRES   REMARKS
CLARKSBURG     CLOUDY    58  45  62 E9        29.96F
MORGANTOWN     CLOUDY    57  41  55 E8        30.00S
$$

WVZ025-035-042-045-241900-
Southern West Virginia

CITY           SKY/WX    TMP DP  RH WIND       PRES   REMARKS
BECKLEY        CLOUDY    52  47  83 E8        29.92S
LOGAN          CLOUDY    61  50  67 VRB7      29.88S
BLUEFIELD      CLOUDY    50  46  86 VRB7      29.91S
LEWISBURG      CLOUDY    51  48  89 E9G17     29.94S FOG
$$

WVZ047-241900-
Northern Mountains of West Virginia

CITY           SKY/WX    TMP DP  RH WIND       PRES   REMARKS
ELKINS         LGT RAIN  54  45  71 VRB5      29.98R
$$

WVZ052-241900-
Eastern Panhandle of West Virginia

CITY           SKY/WX    TMP DP  RH WIND       PRES   REMARKS
MARTINSBURG    CLOUDY    59  42  53 NE9       30.05F
PETERSBURG     CLOUDY    53  49  87 N5        30.06F
$$




USA.gov is the U.S. government's official web portal to all federal, state and local government web resources and services.